Regional Weather Roundup
Issued by NWS

Home | Current Version | Previous Version | Graphics & Text | Print | Product List | Glossary On
Versions: 1 2 3 4 5 6 7 8 9 10 11 12 13 14 15 16 17 18 19 20 21 22 23 24 25 26 27 28 29 30 31 32 33 34 35 36 37 38 39 40 41 42 43 44 45 46 47 48 49 50
000
ASUS43 KMKX 020821
RWRWI

WISCONSIN REGIONAL WEATHER ROUNDUP
NATIONAL WEATHER SERVICE MILWAUKEE/SULLIVAN WI
300 AM CDT THU JUL 02 2015

NOTE: "FAIR" INDICATES FEW OR NO CLOUDS BELOW 12,000 FEET WITH NO
SIGNIFICANT WEATHER AND/OR OBSTRUCTIONS TO VISIBILITY.

WIZ001-002-006>008-014>016-023>028-020900-
NORTHWEST WISCONSIN

CITY           SKY/WX    TMP DP  RH WIND       PRES   REMARKS
SUPERIOR ARPT  CLEAR     50  49  99 CALM      30.00F
ASHLAND        CLEAR     46  46 100 CALM      30.01F
HAYWARD        CLEAR     50  48  93 CALM      30.02S
SIREN          NOT AVBL
CUMBERLAND     NOT AVBL
RICE LAKE      CLEAR     52  51  95 CALM      30.03S FOG
CHETEK         NOT AVBL
LADYSMITH      NOT AVBL
EAU CLAIRE     CLEAR     51  50  96 NE3       30.00R FOG
MENOMONIE      NOT AVBL
NEW RICHMOND   CLEAR     54  54 100 CALM      30.02S
OSCEOLA        NOT AVBL
$$

WIZ003>005-009-010-017-018-020900-
NORTH CENTRAL WISCONSIN

CITY           SKY/WX    TMP DP  RH WIND       PRES   REMARKS
MANITOWISH WTR NOT AVBL
ARBOR VITAE    CLEAR     52  49  89 CALM      30.03F
WOODRUFF       CLEAR     52  49  89 CALM      30.03F
RHINELANDER    CLEAR     47  44  90 CALM      30.04F
EAGLE RIVER    NOT AVBL
LAND O LAKES   CLEAR     41  41 100 CALM      30.05S
PHILLIPS       NOT AVBL
TOMAHAWK       NOT AVBL
MEDFORD        CLEAR     48  47  93 E3        30.03
MERRILL        NOT AVBL
$$

WIZ029-030-035-036-043>047-020900-
CENTRAL WISCONSIN

CITY           SKY/WX    TMP DP  RH WIND       PRES   REMARKS
WAUSAU         CLEAR     52  48  86 CALM      30.03R
MOSINEE        NOT AVBL
MARSHFIELD     CLEAR     53  48  83 E7        30.02R
STEVENS POINT  CLOUDY    53  51  93 SE7       30.04R
WAUPACA        NOT AVBL
WAUTOMA        CLEAR     49  49 100 CALM      30.05R
WISC RAPIDS    CLEAR     53  49  86 SE7       30.04R
CAMP DOUGLAS   CLEAR     45  45 100 E3        30.01R
$$

WIZ011>013-019>022-031-037>040-048>050-020900-
NORTHEAST WISCONSIN

CITY           SKY/WX    TMP DP  RH WIND       PRES   REMARKS
ANTIGO         CLEAR     48  47  95 CALM      30.04F
SHAWANO        NOT AVBL
OCONTO         NOT AVBL
STURGEON BAY   CLEAR     46  43  87 CALM      30.06F
GREEN BAY      CLEAR     49  47  93 CALM      30.03F
MANITOWOC      CLEAR     46  46 100 MISG      30.04S
APPLETON       NOT AVBL
CLINTONVILLE   NOT AVBL
OSHKOSH        CLEAR     53  46  77 S3        30.03S
$$

WIZ032>034-041-042-053>061-020900-
SOUTHWEST WISCONSIN

CITY           SKY/WX    TMP DP  RH WIND       PRES   REMARKS
LA CROSSE      CLEAR     54  52  93 SE5       30.00R
SPARTA         NOT AVBL
VIROQUA        NOT AVBL
BOSCOBEL       FOG       53  51  93 CALM      30.01S VSB 1/4
PRAIRIE DU CHI NOT AVBL
PLATTEVILLE    NOT AVBL
$$

WIZ056-057-062-063-064-067-068-020900-
SOUTH CENTRAL WISCONSIN

CITY           SKY/WX    TMP DP  RH WIND       PRES   REMARKS
REEDSBURG      NOT AVBL
BARABOO/DELLS  NOT AVBL
LONE ROCK      PTCLDY    50  48  93 CALM      30.02R
MINERAL POINT  NOT AVBL
MADISON        CLEAR     50  48  93 NE3       30.01F FOG
MIDDLETON      NOT AVBL
WATERTOWN      NOT AVBL
MONROE         NOT AVBL
JANESVILLE     NOT AVBL
$$

WIZ051-052-058>065-066-070>072-020900-
SOUTHEAST WISCONSIN

CITY           SKY/WX    TMP DP  RH WIND       PRES   REMARKS
MILWAUKEE      CLEAR     53  47  79 NE8       30.01S
WAUKESHA       NOT AVBL
MILWAUKEE/TIMM NOT AVBL
RACINE         CLEAR     54  48  80 NE9       30.02S
BURLINGTON     NOT AVBL
KENOSHA        CLEAR     46  44  93 CALM      30.00F
FOND DU LAC    CLEAR     50  48  93 CALM      30.03S
SHEBOYGAN      CLEAR     48  45  89 N5        30.03S
WEST BEND      NOT AVBL
JUNEAU         NOT AVBL
$$

LSZ147-162-020900-
LAKE SUPERIOR

STATION/POSITION TIME  TEMP    WIND        PRES    WAVE
                       AIR SEA DIR/SP/G            HT/PER
                 (UTC) (F)     (DEG/KT/KT) (MB)    (FT/S)
W MID LAKE BUOY  0750   45 38  270/  4/  6 1016.3F   0
DEVILS ISLAND    0800   60     250/  3/  4 1016.1F
SAXON HARBOR     0740   53     200/  6/  7 1015.9S
$$

LMZ867-665-643>646-020900-
LAKE MICHIGAN

STATION/POSITION TIME  TEMP    WIND        PRES    WAVE
                       AIR SEA DIR/SP/G            HT/PER
                 (UTC) (F)     (DEG/KT/KT) (MB)    (FT/S)
CHAMBERS ISLAND  0700   50      CALM  /  1 1017.3S
S GREEN BAY BUOY 0800   60 68  100/  8/ 12 1018.4
N MID LAKE BUOY  0750   50 42  340/  4/  4 1017.4F   0
NORTHPORT PIER   0700   52      CALM  /  1 1017.3
SISTER BAY       0714   53      80/  1/  4   N/A
ALGOMA LAKESHORE 0710          320/  4/  5   N/A
KEWAUNEE LAKESHO 0800   47      CALM  /  3 1016.5S
SHEBOYGAN LAKESH 0800   56      20/ 11/ 11 1017.0F
PORT WASHINGTON  0740   53     320/  3/  6 1017.3S
ATWATER BUOY     0800   57      20/ 14/ 17 1017.2F
MILWAUKEE LAKESH 0800   57      20/ 13/ 15   N/A
KENOSHA   LAKESH 0800   56      30/ 13/ 15 1015.9S
$$

TC  - TEMPERATURE IN CELSIUS
VSB - VISIBILITY IN STATUTE MILES
WCI - WIND CHILL INDEX
HX  - HEAT INDEX




USA.gov is the U.S. government's official web portal to all federal, state and local government web resources and services.